Temperature
22 22 22 22 22 22 22 22 22 22 22 22 22 22 21 20 20 19 19 19 18 18 18 18 18 18 18 18 18 18 18 18 17 17 17 17 16 16 16 16 15 15 15 15
21 22 22 21 22 22 22 22 22 22 22 23 22 21 21 21 20 19 19 18 18 18 18 18 18 18 18 18 18 18 18 18 17 17 17 16 16 16 16 16 15 15 15 15
21 22 21 21 22 22 22 22 22 22 23 22 22 21 21 20 20 19 19 18 18 18 18 18 18 18 18 18 18 18 17 17 17 17 17 16 16 16 16 15 15 15 15 14
21 21 20 23 23 22 22 22 23 23 23 22 21 20 20 20 20 19 19 18 18 18 18 18 18 18 18 17 17 17 17 17 17 17 16 16 16 16 15 15 15 15 14 14
21 21 21 22 22 22 22 22 23 23 22 21 20 20 20 19 19 19 18 18 18 18 18 18 18 18 17 17 17 17 17 17 17 16 16 16 16 15 15 15 15 14 14 14
20 20 20 22 22 21 22 22 22 22 21 21 21 22 22 19 18 18 18 18 18 18 17 17 17 17 17 17 17 17 17 16 16 16 16 16 15 15 15 15 14 14 14 14
20 20 21 22 21 21 21 22 21 21 20 20 21 21 19 18 18 18 17 17 17 17 17 17 17 17 17 17 17 16 16 16 16 16 15 15 15 15 14 14 14 14 13 13
20 20 21 20 20 21 22 21 20 20 20 19 19 18 18 17 17 17 17 17 17 17 17 17 17 17 16 16 16 16 16 16 15 15 15 15 15 14 14 14 14 13 13 13
21 21 20 19 20 19 19 20 19 19 19 18 18 18 17 17 16 16 16 16 16 16 16 16 16 16 16 16 16 16 16 15 15 15 15 15 14 14 14 13 13 13 12 12
20 20 19 18 18 18 18 18 18 18 18 18 17 17 17 16 16 16 16 16 16 16 16 16 16 16 16 16 16 15 15 15 15 14 14 14 14 14 13 13 13 12 12 12
19 20 19 18 18 17 17 17 17 17 17 17 17 17 16 16 15 15 15 15 15 15 15 15 15 15 15 15 15 15 15 14 14 14 13 13 13 13 13 12 12 12 11 11
19 19 20 19 17 17 17 17 17 17 16 16 16 16 16 15 15 15 15 15 15 15 15 15 15 15 15 15 14 14 14 14 14 13 13 13 12 12 12 12 12 11 11 11
18 17 17 17 17 16 16 16 16 16 16 16 16 15 15 15 15 15 15 15 15 14 14 14 14 14 14 14 14 14 14 13 13 13 13 12 12 12 11 11 11 11 11 10
16 16 16 16 16 16 16 16 16 16 15 15 15 15 15 15 15 14 14 14 14 14 14 14 14 14 14 14 14 13 13 13 13 12 12 12 11 11 11 11 10 10 10 10
15 15 15 15 15 15 15 15 15 15 15 15 15 15 15 14 14 14 14 14 14 13 13 13 13 14 14 13 13 13 13 12 12 12 12 11 11 10 10 10 10 10 10 9
14 14 14 14 14 14 14 15 15 15 15 14 14 14 14 14 14 13 13 13 13 13 13 13 13 13 13 13 13 12 12 12 12 11 11 10 10 10 10 9 9 9 9 9
14 13 13 13 14 14 14 14 14 14 14 14 14 14 13 13 13 13 13 13 13 13 13 13 12 13 12 12 12 12 12 11 11 11 10 10 10 9 9 9 9 8 8 8
13 13 14 14 14 14 14 14 14 14 14 13 13 13 13 13 12 12 12 12 12 12 12 12 12 12 12 12 11 11 11 10 10 10 10 9 9 9 8 8 8 8 8 7
13 13 13 13 13 14 14 13 13 13 13 13 13 13 13 12 12 12 12 12 12 12 12 11 11 11 11 11 11 10 10 10 10 9 9 9 9 8 8 8 8 7 7 7
13 12 13 13 13 13 13 13 13 13 13 13 13 12 12 12 12 12 12 11 11 11 11 11 11 11 10 10 10 10 9 9 9 9 8 8 8 8 7 7 7 7 7 6
12 12 12 12 12 12 12 12 12 12 12 12 12 12 12 12 12 11 11 11 11 11 11 11 10 10 10 10 9 9 9 9 9 8 8 8 7 7 7 7 7 6 6 6
12 12 12 12 12 12 12 12 12 12 12 12 12 11 11 11 11 11 11 11 11 11 10 10 10 10 10 9 9 8 8 8 8 8 7 7 7 7 6 6 6 6 6 6
11 11 11 11 11 11 11 11 11 11 11 11 11 11 11 11 10 10 10 10 10 10 10 10 10 9 9 8 8 8 8 8 7 7 7 7 6 6 6 6 6 6 5 5
10 10 10 11 11 11 10 10 10 11 11 10 10 10 10 10 10 10 10 10 10 9 9 9 9 9 8 8 8 7 7 7 7 7 6 6 6 6 6 6 5 5 5 5
10 10 10 10 10 10 10 10 10 10 10 9 9 9 9 9 9 9 9 9 9 9 8 8 8 8 8 7 7 7 7 7 6 6 6 6 5 5 5 5 5 5 5 4
9 9 9 9 9 9 9 9 9 9 9 9 8 9 9 8 8 8 8 8 8 8 8 7 7 7 7 7 7 7 6 6 6 6 5 5 5 5 4 4 4 4 4 4
9 9 8 8 8 8 8 9 9 8 8 8 8 8 8 8 8 8 7 7 7 7 7 6 6 6 6 6 6 6 6 5 5 5 5 5 4 4 4 4 3 3 3 3
Wind_Speed
6 6 5 6 7 9 9 8 7 6 6 5 3 3 3 3 4 5 5 6 6 7 7 7 7 7 6 6 7 7 7 7 7 7 6 6 5 5 5 5 4 4 4 4
6 6 6 7 8 9 9 9 9 8 7 5 3 3 3 4 5 6 6 6 6 6 7 7 8 7 7 7 7 7 7 7 6 6 6 6 6 5 5 5 4 4 4 4
6 6 6 9 9 9 9 8 8 9 6 3 3 3 4 4 5 6 6 6 6 7 7 7 8 8 7 7 7 7 7 6 6 6 6 6 6 5 5 5 5 4 4 4
6 7 8 3 2 6 8 9 9 8 6 5 4 3 3 4 5 5 6 6 6 6 7 7 7 7 7 7 7 7 7 6 6 6 6 5 5 5 5 5 5 4 4 4
6 8 8 6 5 6 7 8 7 8 6 5 4 4 4 3 4 5 5 5 6 6 7 7 7 7 7 7 7 7 6 6 6 6 6 6 6 5 5 4 4 4 4 4
7 8 7 4 3 4 6 8 5 5 5 4 6 6 3 2 3 3 3 4 5 6 6 6 7 7 7 6 6 6 6 6 6 6 6 6 6 5 4 4 4 4 3 4
11 10 7 2 2 5 7 3 3 5 4 5 5 2 1 2 3 3 4 4 5 6 6 6 6 7 6 6 5 5 5 5 5 6 6 5 5 4 4 4 4 3 3 3
10 10 8 3 5 6 2 2 2 3 3 4 3 2 3 2 3 4 5 5 6 6 6 5 6 6 6 5 4 4 4 5 5 5 5 4 5 4 4 4 4 3 3 2
7 6 2 4 5 3 2 2 2 2 2 3 3 3 3 3 3 4 5 5 5 6 6 5 5 5 5 4 4 4 5 5 4 5 5 4 5 4 4 4 3 3 2 3
9 8 6 5 5 4 4 3 2 2 2 3 3 4 3 3 3 4 4 5 5 6 6 5 5 5 4 4 5 5 5 5 4 5 4 4 3 3 3 3 3 3 3 3
11 9 6 6 6 5 3 3 2 2 2 3 3 4 4 3 4 4 4 4 5 5 5 5 5 5 4 4 5 5 4 4 4 4 4 3 3 2 3 2 2 3 3 3
10 8 8 8 6 6 5 5 4 3 2 2 3 4 4 3 3 3 4 4 4 5 5 5 5 4 4 4 5 5 4 4 3 3 3 3 3 2 3 1 2 1 1 2
10 8 7 6 5 6 6 6 5 4 3 3 3 4 4 4 3 4 4 5 5 5 5 5 5 4 3 4 5 5 4 4 3 3 3 3 3 3 2 2 2 2 2 2
9 7 8 8 6 6 6 6 5 4 3 3 3 3 4 4 4 4 4 5 5 5 5 5 5 4 3 4 4 4 4 3 3 3 3 3 3 3 3 3 2 1 1 3
10 10 9 8 7 6 6 5 5 5 4 3 3 4 4 5 5 5 4 4 5 5 5 5 5 4 3 4 4 4 4 3 3 3 3 3 3 3 3 3 2 2 1 2
7 6 6 7 7 6 6 7 6 6 5 4 3 3 4 4 4 4 5 5 6 6 6 5 5 4 3 4 4 3 3 3 3 3 3 3 3 3 3 3 2 2 2 1
8 8 8 7 8 8 8 8 7 6 5 4 4 4 4 4 4 4 5 5 5 5 5 5 4 4 4 4 4 3 3 4 5 4 3 3 3 3 3 3 3 2 2 2
8 9 8 8 8 8 8 7 6 6 5 5 4 5 5 6 6 5 5 5 4 4 4 4 4 4 4 4 3 3 3 3 4 3 3 3 3 3 3 3 3 3 2 2
7 7 7 7 7 8 7 6 6 5 5 5 5 5 5 5 5 5 5 6 6 5 4 4 5 5 4 4 3 3 3 3 3 3 3 3 3 3 3 3 3 2 2 2
6 6 6 6 6 6 6 6 5 4 4 5 5 5 5 5 5 5 5 5 4 3 4 4 5 5 4 4 3 3 3 3 3 3 3 3 3 3 3 3 3 3 3 3
5 5 5 5 5 5 5 6 5 5 4 5 5 5 5 4 4 5 5 4 3 3 4 4 4 4 4 4 4 3 3 3 3 3 3 3 3 3 3 3 3 3 3 3
3 3 4 4 5 5 4 4 5 5 5 5 4 4 4 4 4 4 4 3 3 4 4 4 3 3 4 4 3 3 4 4 3 3 3 3 3 3 3 3 3 2 2 2
2 2 3 4 5 5 4 4 4 5 5 5 5 5 4 3 3 3 3 2 3 3 3 3 3 5 5 4 3 4 4 4 4 3 3 3 3 3 3 3 3 3 2 2
2 2 3 3 4 5 4 4 4 4 4 4 4 4 4 3 2 2 1 2 3 4 3 4 6 6 5 3 3 3 3 3 3 3 3 3 3 3 3 3 3 2 2 3
2 3 3 4 4 4 4 4 4 4 4 3 3 2 2 2 2 2 2 3 4 4 3 4 6 6 4 3 3 3 3 3 3 2 2 2 2 2 2 2 2 2 2 3
2 2 2 3 3 3 3 4 4 4 3 3 2 2 1 2 2 3 3 4 4 3 3 3 4 4 3 2 2 2 2 2 2 2 2 2 2 2 2 2 3 3 3 3
1 2 2 2 2 3 3 4 4 4 4 3 3 2 2 3 3 3 3 3 3 2 2 2 3 2 2 2 2 2 2 1 1 2 2 2 2 2 2 3 3 3 3 3
Wind_Direction
267 277 267 254 239 222 226 241 249 257 262 271 268 256 230 199 181 175 173 171 173 175 173 174 174 175 178 180 178 178 181 188 193 193 189 188 186 188 188 191 199 199 198 198
252 244 243 255 249 236 235 239 239 250 264 268 255 248 227 205 188 182 180 178 177 178 174 175 175 177 181 180 179 177 180 185 182 184 182 183 184 185 185 187 192 192 197 193
249 241 250 251 243 232 226 226 229 240 248 228 234 243 237 219 205 194 185 181 181 183 181 178 178 179 180 179 176 178 182 181 177 179 179 183 181 182 184 186 189 193 199 197
253 248 248 256 218 230 232 238 236 242 246 233 228 230 242 227 214 204 190 183 183 183 181 179 174 175 176 176 177 180 184 182 178 178 180 179 180 185 191 192 189 197 202 203
246 251 258 250 232 216 228 241 237 232 229 218 202 197 210 202 212 212 205 194 186 183 175 170 167 172 175 177 178 181 185 187 182 180 179 178 182 189 192 192 195 198 202 205
234 247 253 241 192 219 233 234 212 220 215 205 199 215 197 162 190 191 178 176 173 169 165 163 163 169 174 175 179 186 189 190 183 181 180 182 186 187 184 189 197 199 199 207
233 244 253 262 201 202 225 236 175 206 207 202 211 248 119 124 136 139 141 141 147 153 157 159 161 167 172 172 180 186 185 181 177 179 182 182 181 181 180 182 185 195 199 204
228 238 240 179 192 217 257 65 151 186 199 205 202 159 144 131 125 126 130 137 143 148 147 149 157 165 167 171 177 174 173 174 177 176 175 173 172 177 180 180 185 195 205 215
233 245 258 204 228 271 291 224 185 180 187 180 170 161 154 145 135 135 137 141 149 150 145 144 152 164 165 165 167 166 165 169 175 172 168 170 170 171 177 185 196 204 209 225
243 245 244 237 232 249 255 249 228 205 179 175 170 162 155 149 144 139 142 143 152 154 150 149 152 159 162 162 166 162 160 161 167 169 166 168 171 176 183 189 198 207 215 227
243 246 249 238 234 233 243 251 241 214 191 191 183 175 166 159 156 152 148 150 156 158 156 159 158 158 161 163 164 164 160 159 163 163 161 161 156 158 195 197 208 217 219 219
245 244 246 246 235 231 232 236 230 218 210 200 191 183 178 174 169 163 158 159 160 160 163 165 161 160 163 167 171 169 164 161 162 163 161 162 157 131 72 120 115 179 268 255
255 254 255 256 244 235 233 236 232 226 210 196 194 187 186 182 177 175 175 174 174 172 172 166 160 161 167 171 174 173 174 172 169 172 171 175 179 178 170 136 134 163 196 215
244 239 243 238 234 235 234 229 223 219 204 191 191 187 185 182 177 183 190 190 182 179 179 173 166 168 172 172 175 179 177 168 174 179 182 187 192 193 192 194 193 182 160 172
243 243 242 238 232 234 232 215 206 205 194 188 187 190 190 191 190 191 189 186 182 182 181 177 175 173 167 170 180 185 183 180 180 181 185 191 195 197 200 203 203 189 165 147
237 234 229 223 221 225 225 214 206 205 202 198 195 195 192 190 188 185 181 181 186 188 184 182 184 178 171 177 181 185 185 165 185 190 191 192 192 196 198 200 205 207 203 191
219 223 224 221 219 221 219 213 209 204 205 205 200 190 178 175 180 185 184 186 191 190 187 187 186 180 183 188 187 187 184 180 186 201 201 200 200 202 204 207 213 219 223 202
228 229 226 226 222 217 216 211 209 208 207 201 188 184 184 187 192 191 184 176 172 177 187 188 182 181 186 190 190 190 192 197 202 203 202 204 209 212 215 222 223 229 232 203
226 234 237 235 223 209 205 202 203 201 194 185 185 191 195 197 195 189 184 182 184 191 194 185 181 187 186 185 183 191 197 202 205 202 200 194 205 213 216 218 222 229 230 229
226 229 231 228 215 203 196 193 188 183 182 181 185 189 191 191 186 186 189 196 203 199 184 181 188 192 187 180 183 197 198 200 203 201 203 208 212 215 219 223 226 231 237 244
222 216 206 198 195 197 193 184 177 178 179 180 183 187 188 185 185 188 191 199 199 176 169 180 192 190 185 178 190 200 198 199 200 203 206 210 214 217 223 228 234 239 245 251
212 201 192 184 184 186 183 180 177 171 169 173 178 178 175 178 186 199 208 205 183 163 175 188 193 173 175 180 193 194 196 199 203 207 211 213 216 221 224 228 235 241 245 249
209 203 193 190 187 177 169 173 175 171 172 176 179 180 181 184 190 195 206 194 176 178 186 190 163 153 170 187 190 194 198 203 208 210 212 216 221 225 229 233 237 237 240 247
202 194 188 179 169 167 170 172 168 166 167 171 179 181 179 179 191 204 195 159 165 173 186 160 155 166 185 195 195 199 202 205 210 214 214 218 223 230 236 240 245 247 242 246
192 179 174 170 173 176 173 161 152 148 150 154 158 166 178 183 181 171 154 152 151 157 157 156 161 172 185 193 195 199 205 205 204 210 218 225 231 238 241 240 243 247 246 247
197 182 181 183 179 171 167 162 160 161 158 153 150 147 141 133 129 131 134 143 146 145 151 161 167 174 179 178 186 191 195 189 194 209 219 227 230 235 238 239 248 252 253 256
159 160 161 164 165 173 172 165 162 166 166 161 151 142 139 134 129 129 130 135 142 147 149 154 163 168 165 164 167 180 197 204 212 222 229 235 237 239 239 246 253 257 257 254
Height
1515 1515 1515 1515 1515 1516 1517 1515 1517 1515 1515 1513 1513 1514 1516 1517 1518 1520 1522 1523 1525 1527 1530 1532 1535 1537 1539 1541 1543 1545 1547 1548 1550 1552 1553 1554 1555 1556 1557 1558 1559 1559 1560 1560
1517 1515 1515 1516 1513 1513 1514 1513 1513 1513 1513 1510 1512 1513 1514 1516 1517 1518 1520 1522 1524 1526 1528 1530 1533 1535 1537 1539 1541 1543 1544 1546 1547 1549 1550 1551 1553 1554 1555 1555 1556 1557 1557 1558
1518 1514 1515 1515 1508 1508 1509 1509 1509 1511 1509 1509 1511 1512 1513 1514 1515 1516 1518 1520 1522 1524 1526 1528 1531 1533 1535 1537 1539 1541 1542 1544 1545 1546 1547 1549 1550 1551 1552 1553 1553 1554 1555 1555
1516 1516 1523 1506 1502 1503 1505 1505 1504 1505 1506 1508 1510 1511 1512 1513 1514 1515 1517 1518 1520 1522 1524 1527 1529 1531 1533 1535 1537 1538 1540 1541 1542 1544 1545 1546 1547 1548 1549 1550 1551 1551 1552 1552
1515 1516 1510 1503 1501 1502 1504 1503 1502 1503 1505 1507 1509 1510 1511 1511 1512 1513 1515 1516 1518 1520 1523 1525 1526 1529 1531 1533 1535 1536 1537 1539 1540 1541 1543 1544 1545 1546 1547 1547 1548 1549 1549 1549
1515 1517 1514 1501 1499 1501 1503 1502 1501 1502 1503 1505 1506 1505 1507 1510 1510 1511 1513 1514 1516 1518 1520 1522 1525 1527 1529 1531 1532 1533 1535 1536 1538 1539 1540 1541 1542 1543 1544 1545 1545 1546 1546 1546
1511 1510 1502 1498 1500 1502 1506 1500 1500 1501 1503 1504 1505 1505 1507 1508 1508 1509 1511 1512 1514 1516 1518 1520 1523 1525 1527 1528 1530 1531 1533 1534 1535 1536 1537 1539 1540 1541 1541 1542 1543 1543 1543 1543
1506 1508 1505 1499 1500 1499 1497 1498 1499 1500 1502 1503 1504 1505 1506 1507 1507 1508 1509 1511 1512 1514 1516 1518 1520 1523 1524 1526 1528 1529 1530 1531 1532 1534 1535 1536 1537 1538 1538 1539 1539 1540 1540 1540
1498 1498 1496 1498 1498 1498 1498 1498 1499 1500 1501 1502 1502 1503 1505 1506 1506 1507 1508 1510 1511 1513 1515 1517 1519 1521 1523 1524 1526 1527 1528 1529 1530 1531 1532 1533 1534 1534 1535 1536 1536 1537 1537 1537
1495 1493 1495 1496 1497 1497 1498 1498 1498 1499 1500 1500 1501 1502 1503 1504 1505 1506 1507 1509 1510 1512 1513 1515 1517 1519 1521 1522 1524 1525 1525 1526 1527 1528 1529 1530 1531 1531 1532 1532 1533 1533 1533 1534
1491 1491 1493 1493 1495 1496 1496 1497 1497 1498 1498 1499 1500 1501 1502 1503 1504 1505 1506 1508 1509 1510 1512 1514 1515 1517 1519 1520 1521 1522 1524 1525 1525 1526 1527 1528 1528 1528 1529 1529 1530 1530 1530 1530
1488 1489 1489 1490 1492 1493 1494 1495 1495 1496 1496 1497 1498 1499 1500 1502 1503 1504 1505 1506 1507 1509 1510 1512 1513 1515 1517 1518 1519 1521 1522 1523 1523 1524 1524 1525 1525 1526 1526 1527 1527 1527 1527 1527
1487 1487 1488 1488 1489 1491 1492 1492 1493 1494 1494 1495 1496 1497 1498 1499 1501 1502 1503 1505 1506 1507 1509 1510 1512 1513 1515 1516 1517 1518 1520 1520 1521 1521 1522 1523 1523 1523 1523 1524 1524 1524 1524 1524
1484 1484 1485 1485 1486 1488 1489 1489 1491 1491 1492 1493 1494 1495 1496 1497 1498 1499 1501 1502 1504 1505 1507 1508 1510 1511 1513 1514 1515 1516 1517 1518 1518 1519 1519 1520 1520 1521 1521 1520 1520 1520 1521 1521
1479 1480 1481 1482 1483 1485 1486 1486 1488 1488 1489 1491 1492 1492 1493 1494 1496 1497 1499 1500 1501 1503 1504 1506 1507 1509 1510 1511 1512 1513 1514 1515 1516 1516 1516 1517 1517 1518 1518 1518 1518 1517 1517 1518
1475 1476 1477 1478 1479 1480 1482 1483 1484 1485 1486 1488 1489 1490 1491 1492 1493 1494 1496 1497 1498 1500 1501 1503 1504 1506 1507 1508 1510 1510 1511 1512 1512 1513 1513 1514 1514 1515 1515 1515 1515 1515 1515 1514
1471 1472 1473 1474 1475 1476 1478 1480 1481 1482 1483 1485 1486 1487 1488 1489 1490 1492 1493 1494 1496 1497 1499 1500 1501 1503 1504 1505 1506 1507 1508 1508 1509 1510 1510 1511 1511 1511 1512 1512 1512 1512 1512 1511
1467 1468 1469 1470 1471 1473 1474 1476 1477 1479 1480 1481 1482 1484 1485 1486 1488 1489 1490 1492 1493 1495 1496 1497 1498 1499 1500 1502 1503 1503 1504 1504 1505 1506 1506 1507 1507 1508 1508 1509 1509 1508 1508 1508
1462 1464 1465 1466 1467 1469 1470 1472 1473 1475 1477 1478 1479 1481 1482 1484 1485 1487 1488 1489 1490 1491 1493 1494 1495 1496 1497 1498 1499 1499 1500 1501 1501 1502 1502 1503 1504 1504 1505 1505 1505 1505 1504 1504
1458 1459 1461 1462 1464 1465 1467 1468 1470 1472 1473 1475 1477 1478 1480 1481 1482 1484 1485 1486 1488 1489 1490 1491 1492 1492 1493 1494 1495 1496 1496 1497 1497 1498 1499 1499 1500 1500 1501 1501 1501 1501 1501 1500
1454 1455 1457 1458 1460 1462 1464 1465 1467 1468 1470 1472 1474 1475 1477 1478 1479 1481 1482 1483 1485 1486 1487 1487 1488 1489 1490 1490 1491 1492 1493 1493 1494 1494 1494 1495 1495 1496 1496 1496 1496 1496 1496 1496
1451 1452 1453 1455 1457 1459 1460 1462 1464 1465 1467 1469 1471 1472 1474 1475 1476 1478 1479 1480 1481 1482 1483 1484 1485 1485 1486 1487 1488 1488 1489 1490 1490 1490 1491 1491 1492 1492 1492 1492 1492 1492 1492 1491
1449 1450 1451 1452 1454 1455 1457 1459 1461 1462 1464 1466 1467 1469 1470 1472 1473 1474 1475 1477 1477 1479 1479 1480 1481 1482 1483 1483 1484 1485 1486 1486 1487 1487 1487 1487 1487 1488 1488 1488 1488 1487 1487 1486
1446 1447 1448 1450 1452 1453 1454 1456 1458 1459 1461 1463 1465 1466 1468 1469 1470 1471 1472 1472 1473 1475 1476 1477 1478 1479 1479 1480 1481 1482 1482 1482 1483 1483 1483 1483 1483 1484 1484 1483 1483 1483 1482 1482
1444 1444 1446 1447 1449 1450 1452 1453 1455 1457 1459 1461 1462 1464 1465 1466 1467 1468 1468 1469 1470 1471 1472 1473 1475 1475 1476 1477 1477 1478 1478 1479 1479 1479 1479 1479 1479 1479 1479 1479 1478 1478 1477 1477
1441 1441 1442 1444 1445 1447 1449 1451 1452 1454 1456 1457 1459 1460 1462 1463 1464 1465 1466 1467 1468 1469 1469 1470 1471 1472 1473 1473 1474 1475 1475 1475 1475 1475 1475 1475 1475 1475 1474 1474 1474 1473 1472 1472
1438 1439 1441 1442 1443 1445 1447 1448 1449 1451 1453 1455 1456 1458 1459 1460 1461 1463 1463 1464 1465 1466 1467 1468 1468 1469 1470 1470 1471 1471 1472 1472 1472 1472 1472 1471 1471 1470 1470 1469 1469 1468 1467 1466